Location: Limerick
(52.6800°N, 8.6400°W)
Time: 12:02:50
(UTC+01:00)

ISS - All Passes

Search period start: 26 May 2017 00:00
Search period end: 05 June 2017 00:00
Orbit: 402 x 408 km, 51.6° (Epoch: 26 May)

Date Brightness Start Highest point End Pass type
(mag) Time Alt. Az. Time Alt. Az. Time Alt. Az.
26 May - 00:47:27 10° W 00:50:45 73° S 00:54:02 10° E visible
26 May - 02:23:54 10° W 02:27:09 56° SSW 02:30:23 10° ESE visible
26 May - 04:00:45 10° W 04:03:13 19° SW 04:05:39 10° SSE visible
26 May - 22:19:47 10° SSW 22:22:34 25° SSE 22:25:20 10° E daylight
26 May - 23:55:26 10° WSW 23:58:43 65° S 00:02:00 10° E visible
27 May - 01:31:51 10° W 01:35:08 68° S 01:38:25 10° ESE visible
27 May - 03:08:28 10° W 03:11:20 28° SSW 03:14:12 10° SSE visible
27 May - 21:28:25 10° S 21:30:42 17° SE 21:32:58 10° E daylight
27 May - 23:03:28 10° WSW 23:06:42 52° SSE 23:09:56 10° E visible
28 May - 00:39:47 10° W 00:43:05 75° S 00:46:22 10° E visible
28 May - 02:16:18 10° W 02:19:24 39° SSW 02:22:29 10° SE visible
28 May - 03:54:15 10° WSW 03:55:13 11° SW 03:56:11 10° SSW visible
28 May - 20:37:44 10° SSE 20:38:52 11° SE 20:40:01 10° ESE daylight
28 May - 22:11:36 10° SW 22:14:42 39° SSE 22:17:50 10° E daylight
28 May - 23:47:44 10° W 23:51:02 75° S 23:54:19 10° E visible
29 May - 01:24:11 10° W 01:27:24 51° SSW 01:30:37 10° ESE visible
29 May - 03:01:11 10° WSW 03:03:25 17° SW 03:05:36 10° S visible
29 May - 21:19:51 10° SSW 21:22:44 29° SSE 21:25:39 10° E daylight
29 May - 22:55:40 10° WSW 22:58:57 69° S 23:02:14 10° E visible
30 May - 00:32:05 10° W 00:35:22 64° S 00:38:37 10° ESE visible
30 May - 02:08:46 10° W 02:11:31 24° SSW 02:14:15 10° SSE visible
30 May - 20:28:20 10° SSW 20:30:49 20° SSE 20:33:19 10° E daylight
30 May - 22:03:38 10° WSW 22:06:54 57° SSE 22:10:09 10° E daylight
30 May - 23:40:00 10° W 23:43:18 73° S 23:46:35 10° E visible
31 May - 01:16:31 10° W 01:19:34 34° SSW 01:22:35 10° SE visible
31 May - 19:37:14 10° S 19:38:57 13° SE 19:40:40 10° ESE daylight
31 May - 21:11:40 10° SW 21:14:51 44° SSE 21:18:01 10° E daylight
31 May - 22:47:53 10° W 22:51:11 76° S 22:54:29 10° E visible
01 Jun - 00:24:21 10° W 00:27:33 47° SSW 00:30:43 10° SE visible
01 Jun - 02:01:35 10° WSW 02:03:29 15° SW 02:05:22 10° S visible
01 Jun - 20:19:50 10° SW 20:22:50 32° SSE 20:25:50 10° E daylight
01 Jun - 21:55:47 10° WSW 21:59:04 72° S 22:02:22 10° E daylight
01 Jun - 23:32:13 10° W 23:35:29 60° SSW 23:38:43 10° ESE visible
02 Jun - 01:08:59 10° W 01:11:34 21° SSW 01:14:09 10° SSE visible
02 Jun - 19:28:10 10° SSW 19:30:51 23° SSE 19:33:31 10° E daylight
02 Jun - 21:03:42 10° WSW 21:06:58 62° SSE 21:10:14 10° E daylight
02 Jun - 22:40:05 10° W 22:43:22 70° S 22:46:40 10° ESE visible
03 Jun - 00:16:39 10° W 00:19:36 30° SSW 00:22:32 10° SE visible
03 Jun - 18:36:51 10° S 18:38:54 16° SE 18:40:59 10° ESE daylight
03 Jun - 20:11:40 10° WSW 20:14:52 49° SSE 20:18:05 10° E daylight
03 Jun - 21:47:56 10° W 21:51:14 75° S 21:54:32 10° E daylight
03 Jun - 23:24:25 10° W 23:27:34 42° SSW 23:30:42 10° SE visible
04 Jun - 01:01:58 10° WSW 01:03:26 12° SW 01:04:53 10° SSW visible
04 Jun - 17:46:45 10° SE 17:47:01 10° SE 17:47:17 10° SE daylight
04 Jun - 19:19:43 10° SW 19:22:48 36° SSE 19:25:53 10° E daylight
04 Jun - 20:55:47 10° W 20:59:05 74° S 21:02:23 10° E daylight
04 Jun - 22:32:14 10° W 22:35:29 55° SSW 22:38:42 10° ESE daylight
